CAPE
1743 2030 2443 2654 2637 2760 2635 2485 2515 2500 2272 2195 2298 2393 2313 2281 2227 2081 2101 2058 1917 1788 1756 1721 1738 1848 1853 1828 1725 1700 1710 1463 1349 1302 1320 1286 1293 1274 1203 1010 991 983 925 848 811 703 643 699 628 538 551 690 838 826 929 922 904 840 794 684 544 488 420 394 331 598 408 288 781 1132 1262 1244 1278 1265 1010 837 871 816 759 499 317 224 66 122 68
1640 2139 2628 2644 2523 2713 2660 2536 2577 2493 2440 2391 2342 2454 2446 2381 2217 2252 2307 2185 2132 2033 1980 1907 1972 1989 1885 1825 1921 1957 1967 1831 1377 1334 1255 1260 1233 1292 1162 1134 995 1008 928 652 459 383 327 325 344 408 525 670 662 673 732 778 687 735 603 534 485 468 468 425 403 643 555 640 774 842 1150 1084 1067 1091 1052 942 823 694 578 426 395 294 264 320 255
1869 2427 2701 2811 2727 2854 2649 2490 2579 2426 2496 2370 2394 2419 2437 2520 2456 2452 2380 2276 2243 2194 2137 2060 2025 1919 1879 1888 1933 1878 1779 1741 1792 1258 1176 1144 1042 995 1014 1035 936 942 985 865 771 622 497 479 512 487 625 664 686 583 603 639 672 767 636 406 485 661 750 736 670 584 683 680 730 911 940 1044 981 1015 1038 950 597 400 383 121 99 121 41 2 0
2034 2379 2945 2854 2492 2695 2537 2494 2440 2403 2312 2302 2430 2479 2496 2540 2470 2372 2257 2117 1941 1872 1863 1969 2124 2077 1993 2123 1908 1762 1657 1669 1647 1325 987 984 1008 1050 1120 1136 1080 1066 1222 1282 1278 1086 821 610 596 699 670 743 703 629 593 673 746 768 734 664 774 858 856 854 875 866 881 923 921 732 715 644 739 898 890 923 808 670 530 271 62 48 7 2 5
2152 2349 3088 2871 2630 2590 2474 2518 2432 2408 2340 2336 2428 2487 2499 2447 2377 2228 2233 2136 2122 2063 1999 1970 1995 1940 1907 1761 1652 1724 1875 1837 1629 1487 1230 1136 1158 1299 1296 1331 1143 1263 1338 1282 1294 1169 1089 1024 597 409 433 514 590 647 634 698 654 672 784 757 750 761 815 806 818 870 852 860 784 483 535 583 610 787 666 448 348 260 276 382 411 406 346 336 144
2219 2384 2574 2437 2590 2624 2574 2492 2496 2437 2422 2439 2513 2529 2571 2458 2322 2286 2410 2308 2193 2149 1996 1941 2075 1970 1664 1489 1519 1696 1899 1999 1864 1649 1477 1392 1286 1191 1112 1102 1290 1291 1295 1086 1098 1167 1056 912 934 886 781 758 802 779 792 812 844 854 873 824 771 854 828 853 928 850 794 793 635 376 450 422 461 574 810 745 509 530 541 440 362 146 74 100 130
2365 2581 2577 2635 2674 2650 2646 2567 2481 2484 2520 2589 2585 2580 2609 2660 2451 2383 2268 2289 2227 2172 2048 1954 1953 1626 1492 1521 1530 1631 1814 1891 1972 1966 1565 1499 1469 1341 1225 1228 1138 1317 1127 1032 1055 1116 1209 1041 804 643 552 612 791 924 902 888 900 902 912 921 865 927 947 825 778 720 675 379 379 253 65 425 435 418 546 771 812 658 470 304 72 28 52 28 40
2527 2765 2978 2861 2703 2712 2596 2528 2511 2541 2600 2662 2670 2622 2755 2773 2630 2471 2314 2347 2313 2173 2043 1875 1673 1416 1334 1400 1556 1568 1626 1751 1896 2014 2176 1503 1403 1405 1314 1205 1175 1038 996 1144 1098 1424 1301 1217 1182 824 594 602 824 939 1055 1025 917 747 800 894 870 683 631 634 812 733 518 330 340 339 449 547 565 494 736 937 930 613 268 42 15 40 0 14 104
2213 2695 2982 2942 2763 2549 2579 2513 2534 2568 2600 2690 2733 2762 2739 2815 2627 2464 2454 2433 2432 2194 2073 1798 1495 1344 1300 1280 1450 1501 1476 1547 1709 1866 2004 2075 1610 1460 1244 1080 1222 1204 1037 1302 1236 1232 1198 1048 901 893 886 889 1067 1136 946 897 920 848 793 816 770 606 559 500 588 809 516 295 355 462 448 466 482 789 1025 846 560 431 414 412 272 99 9 0 37
2209 2547 2969 2817 2482 2445 2480 2500 2561 2636 2586 2664 2759 2856 2868 2784 2672 2565 2509 2455 2433 2263 2014 1722 1462 1261 1309 1375 1312 1363 1513 1471 1594 1754 1993 2221 2281 2380 2285 1753 1584 1322 1248 1308 1284 1228 1154 1037 919 930 1115 1079 1000 1078 1114 985 996 922 862 820 768 598 596 652 486 631 284 289 419 464 569 784 526 564 787 595 303 182 98 183 414 30 1 37 4
2173 2707 2910 2895 2870 2763 2688 2559 2604 2603 2468 2644 2704 2742 2839 2779 2749 2676 2648 2582 2461 2330 2059 1574 1362 1458 1443 1397 1398 1431 1425 1524 1660 1771 2066 2174 2343 2354 2163 1785 1604 1381 1321 1344 1224 1210 1179 1098 955 1069 1420 1451 1379 1255 1144 1125 1025 1021 905 728 663 713 773 658 518 300 206 293 411 545 1023 893 569 709 866 630 330 160 188 190 21 6 8 18 378
2231 2754 2824 2851 2738 2932 2785 2625 2670 2657 2480 2415 2588 2660 2230 2608 2662 2540 2639 2575 2406 2294 2087 1855 1695 1526 1542 1529 1573 1567 1624 1621 1752 1699 1722 1838 1868 2099 2329 2175 1647 1407 1364 1312 1338 1288 1261 1219 1064 1072 1320 1325 1328 1148 1022 1046 934 870 780 816 858 771 574 456 355 274 190 279 444 616 594 580 582 626 762 650 416 291 197 165 223 212 71 480 435
2328 2445 2322 2293 2811 2968 2819 2634 2705 2600 2541 2565 2644 2588 2374 2533 2556 2539 2558 2477 2398 2324 2204 2098 1976 1923 1840 1680 1721 1776 1715 1671 1669 1686 1600 1669 1756 2112 2284 2295 1983 1659 1505 1562 1599 1446 1406 1417 1246 1077 1125 1094 1075 1112 1088 1004 920 779 834 903 984 606 458 461 344 159 233 371 404 526 524 501 516 687 670 635 536 465 373 224 124 110 126 476 464
2125 2225 2334 2581 2851 3044 2913 2782 2786 2836 2803 2636 2619 2553 2590 2565 2573 2522 2537 2480 2448 2378 2265 2200 2150 2117 2110 2085 2160 2198 2096 1872 1752 1756 1698 1687 1687 1753 2054 2066 1898 1744 1728 1670 1495 1397 1472 1314 1072 1029 1060 901 937 1004 982 999 1001 945 887 1026 1008 683 578 517 332 249 248 210 318 485 532 550 591 668 546 424 429 346 341 277 179 131 91 350 329
2045 2227 2403 2538 2562 2910 3084 2942 2906 2883 2837 2800 2739 2628 2580 2511 2394 2464 2572 2535 2477 2402 2320 2281 2255 2285 2371 2398 2379 2364 2379 2073 1974 1868 1745 1680 1662 1674 1716 1871 1840 1761 1684 1522 1429 1547 1596 1341 1134 1045 940 970 959 907 863 954 1076 1110 1010 1100 1091 892 570 308 335 315 275 208 387 518 550 507 882 556 531 446 427 440 345 258 172 145 118 96 106
1887 1835 1859 2264 2629 2753 2825 3063 2891 2815 2736 2692 2702 2620 2577 2444 2387 2525 2630 2513 2452 2398 2379 2408 2434 2528 2539 2479 2412 2471 2482 2271 2145 2033 1882 1764 1711 1710 1695 1727 1762 1659 1601 1463 1516 1644 1432 1210 1099 1012 921 892 933 917 884 1033 1157 1222 1219 1194 1283 1073 612 315 380 335 306 190 350 430 398 572 863 623 479 410 382 381 371 343 274 236 188 193 116
1685 1758 1793 2121 2417 2529 2723 2935 2843 2720 2724 2645 2677 2536 2470 2382 2418 2657 2469 2400 2458 2500 2475 2508 2675 2666 2532 2426 2412 2429 2547 2573 2440 2249 2119 2018 1905 1822 1808 1812 1732 1719 1648 1622 1626 1569 1355 1192 1070 946 921 1048 1035 1015 1120 1193 1321 1325 1291 1230 1344 1084 704 425 388 336 229 212 286 303 363 613 838 553 515 426 314 272 285 294 355 350 345 298 239
1647 1652 1680 2018 2094 2262 2464 2620 2752 2706 2736 2723 2696 2632 2513 2424 2516 2581 2388 2476 2555 2664 2414 2587 2683 2538 2422 2479 2494 2483 2486 2582 2541 2374 2195 2052 1951 1913 1918 1902 1824 1743 1732 1704 1674 1589 1375 1280 1185 1037 941 1040 1044 1213 1306 1217 1296 1284 1218 1279 1395 1100 750 515 374 314 190 430 262 416 367 743 795 584 511 460 392 364 372 429 438 347 251 222 326
1520 1501 1776 1877 2118 2165 2318 2654 2740 2847 2899 2836 2708 2639 2557 2464 2613 2501 2540 2582 2678 2764 2819 2721 2607 2514 2425 2503 2618 2686 2671 2619 2519 2352 2413 2185 2117 1736 1911 1976 1849 1796 1796 1731 1670 1472 1337 1243 1249 1094 918 1055 1139 1336 1235 1072 1085 1238 1348 1472 1212 1066 838 541 361 296 336 431 273 334 341 867 736 585 598 510 415 362 206 84 215 240 497 518 390
1185 1630 1718 1934 2133 2211 2450 2687 2789 2800 2771 2772 2729 2601 2399 2317 2339 2414 2384 2061 2223 2440 2478 2214 2100 2018 2079 2292 2602 2914 2595 2677 2645 2544 2453 2301 2295 2182 1900 2108 2052 1950 1836 1791 1644 1553 1406 1373 1268 1229 1123 1085 1280 1237 1128 1256 958 1260 1336 1215 922 1039 598 462 348 308 368 325 346 268 468 914 744 602 623 547 422 262 201 190 249 586 452 336 479
877 1316 1493 1908 2108 2190 2326 2532 2757 2840 2784 2840 2533 2195 1984 1829 2077 1763 1689 1589 1835 1932 1796 1628 1547 1624 1573 1702 2146 2221 2243 1930 1450 1685 1404 1968 2143 2332 2164 2110 2284 2103 1997 1882 1780 1630 1610 1495 1311 1362 1218 1155 1302 1314 1368 1293 1289 1428 1328 1018 1011 436 522 482 346 324 332 367 526 247 702 863 808 663 646 573 414 299 231 119 172 153 500 695 667
883 1011 1382 1864 1989 2173 2239 2430 2688 2819 2822 2591 2403 2015 1693 1843 1912 1903 1571 1612 1673 1809 1713 1680 1570 1256 1038 1054 1695 1901 1914 1419 1395 1482 1074 1230 1657 2274 2469 1945 2354 2228 2107 2019 1946 1838 1713 1646 1547 1372 1309 1239 1277 905 534 616 994 1479 1393 1034 522 454 478 492 361 293 283 328 386 285 792 824 653 623 647 585 434 327 221 193 136 217 803 674 593
834 757 1343 1828 1842 1889 2082 2338 2590 2816 2659 2206 2090 2045 1677 1708 2001 1999 1819 1584 1572 1679 1587 1674 1396 1335 1324 1171 1305 1764 1486 1451 1428 1314 1374 1067 1302 1641 1946 2385 2419 2230 2236 2137 2015 1971 1883 1833 1740 1593 1470 1265 865 563 312 11 316 503 970 521 682 494 441 455 367 211 242 319 293 449 730 718 647 597 573 568 504 340 264 206 192 120 442 539 601
723 689 1248 1866 1766 1659 1903 2263 2579 2547 2294 1921 1861 1712 1598 1795 2017 2022 1931 1732 1412 1760 1582 1386 1464 1159 1053 1411 1536 1621 1668 1512 1476 1501 1373 1218 1226 1490 1694 1938 2181 2339 2265 2173 2126 2055 2007 1942 1906 1855 1431 997 663 430 32 0 270 345 486 694 723 523 461 444 314 159 199 391 301 620 776 933 678 609 678 513 497 392 346 274 195 145 201 172 471
621 784 1479 1798 1629 1548 1600 2092 2488 2530 2014 1462 1971 1938 1766 1778 1980 1907 1860 1466 1109 1418 1693 1588 1562 1543 1464 1437 1578 1623 1768 1795 1584 1373 1300 1151 1312 1257 1454 1767 1763 1864 2288 2004 2039 1896 1884 1764 1770 1804 1556 1051 601 395 34 2 263 318 478 758 731 624 468 376 270 221 316 349 286 721 930 932 765 752 734 533 474 483 437 330 229 158 164 172 257
544 997 1589 1805 1545 1419 1376 2406 2815 2119 1304 757 1423 2159 2008 1875 2073 2077 1751 1524 1404 1429 1379 1540 1779 1840 1882 1796 1467 1397 1638 1897 1722 1610 1478 1284 1038 1123 1650 1508 1758 1890 1998 1998 1936 1738 1852 1661 1618 1664 1631 1335 783 432 287 95 234 19 242 703 798 735 448 375 292 304 380 375 298 868 1143 1156 1146 884 776 664 602 534 407 321 274 172 172 147 187
1116 1364 1661 1752 1404 1412 1952 2615 2787 1851 1271 903 1424 2146 2368 2308 2197 2293 1914 1842 1674 1616 1468 1453 1606 1952 2019 1682 1423 1159 1269 1640 1628 1539 1477 1429 1218 1150 1271 1280 1343 1966 2014 2040 1981 1821 1732 1611 1437 1502 1458 1288 1013 619 391 133 194 116 589 652 762 866 718 644 471 409 459 397 440 1110 1222 1268 1355 991 780 759 690 572 466 358 350 258 176 126 165
1268 1465 1329 1448 1915 2205 2083 2337 2213 1932 1620 1482 1736 2284 2218 2430 2299 2386 2010 1725 1730 1632 1202 1269 1402 1766 1942 1917 1973 1708 1308 1301 1261 1536 1586 1236 952 1258 1407 1221 1093 1667 1825 1815 1979 1937 1808 1574 1429 1340 1301 1318 1132 789 483 1 259 436 475 589 700 807 889 845 506 524 509 450 478 1185 1222 1320 1300 1229 841 776 735 677 574 435 366 284 126 136 137
1432 1409 1333 1448 1808 2043 1976 1750 1950 1991 2056 1701 1824 2548 2431 2399 2274 2253 2096 2039 1968 1799 1398 1264 1451 1575 1654 1746 1943 1903 1693 1374 1144 1252 1244 948 1069 1228 1358 1390 986 1381 1671 1713 1708 1817 1875 1744 1514 1411 1426 1412 1221 702 177 2 334 333 328 631 716 707 812 878 662 619 580 502 579 1069 1392 1349 1239 1254 915 833 775 782 678 550 427 424 272 189 154
1494 1442 1529 1238 1462 2036 1770 1809 1856 2081 2147 2008 2066 2523 2706 2639 2540 2236 2097 2243 2105 1876 1749 1505 1380 1555 1488 1868 1784 1888 1807 1502 1260 1082 959 1156 1227 1178 1354 1490 1356 1062 1242 1336 1603 1855 1991 1809 1550 1524 1522 1453 1204 599 332 342 388 230 203 387 628 730 762 852 769 806 650 592 708 862 1285 1318 1206 894 1089 932 910 843 843 702 590 511 329 253 222
1473 1324 1504 1453 1759 2011 2039 1970 2068 2250 2340 2435 2143 2123 2280 2343 2188 1753 1715 1916 1949 1905 1888 1898 1786 1696 1593 1835 1967 1912 1780 1611 1447 1085 1005 1237 1168 1052 1192 1219 1287 987 882 1014 1382 1671 1893 1852 1565 1394 1302 1246 1171 686 276 253 117 39 86 430 643 774 793 803 727 876 718 648 795 804 807 1049 823 804 910 1061 1037 968 964 903 696 582 437 317 239
966 1223 1380 1916 2116 2269 2284 2302 2169 2306 2486 2451 2360 2008 1865 2077 1602 1519 1494 1642 1921 2036 2073 1966 1791 1635 1524 1509 1956 2038 1917 1766 1590 1208 1216 1273 1204 1023 1091 1284 1223 825 852 1032 1213 1639 1833 1726 1552 1381 1184 1082 1052 514 394 217 100 98 56 292 489 725 817 824 833 793 704 688 823 779 698 761 958 1020 1038 945 1196 1124 1064 1044 1062 750 610 430 354
1305 1053 942 1582 2095 2517 2783 2458 2107 2200 2470 2662 2558 2129 1769 1372 1535 1639 1471 1456 1607 1573 1554 1471 1264 1194 1288 1362 1642 1922 1940 1828 1600 1210 1403 1301 1257 1226 1227 1316 1459 1288 1187 1158 1303 1682 1586 1453 1289 1193 1128 1000 1076 672 504 311 305 256 168 218 339 599 753 881 859 805 728 752 774 697 684 773 711 957 1283 1128 1078 1138 1408 1254 1144 1041 798 553 464
1149 1078 1485 1091 1559 2441 2434 2167 2033 2482 2556 2218 2098 1788 1667 1436 1369 1370 1164 875 814 838 782 740 944 938 1020 1218 1412 1600 1715 1662 1525 1102 1406 1484 1402 1460 1341 1465 1633 1642 1460 1356 1507 1441 1272 1060 1142 1158 1040 1082 1074 776 533 484 411 408 333 316 308 329 439 672 822 856 838 825 783 502 484 672 777 775 881 1058 1275 1232 1166 1410 1434 1208 1074 722 482
1082 1416 1513 1408 1118 1954 2480 2927 3050 2647 1643 1791 1767 1802 1590 1377 1187 932 859 901 890 868 999 1164 1305 1270 1142 1100 1209 1327 1461 1474 1318 1273 1382 1551 1665 1710 1497 1657 1708 1703 1550 1422 1411 1313 1100 1092 1170 985 1016 995 920 934 731 555 459 389 363 360 339 356 341 305 438 656 805 837 859 816 557 518 671 760 841 923 948 1286 1390 1290 1613 1569 1251 1013 740
1202 1276 1192 1138 1238 1769 2220 2046 2226 2094 1590 1663 1997 1794 1499 1073 966 1205 914 908 841 809 912 893 1082 1280 1352 1401 1355 1330 1307 1155 1101 1259 1362 1260 1342 1360 1757 1760 1674 1658 1624 1380 1051 1017 1075 1057 1077 1068 994 851 852 801 717 593 516 440 344 350 360 381 385 355 331 302 470 739 899 865 734 599 528 654 848 812 909 900 1067 1400 1367 1500 1605 1376 1098
1138 1170 1104 1237 1451 2091 2150 1986 2041 1748 1453 1868 1967 1575 1161 1046 1213 1190 999 1014 939 897 1001 998 882 1005 1183 1399 1433 1330 1048 860 1151 1286 1312 1268 1336 1306 971 1435 1455 1418 1336 1056 962 1025 1004 895 924 935 898 755 731 684 629 583 502 406 393 376 363 358 358 374 311 313 268 288 383 510 655 650 582 983 663 668 721 812 850 1057 1311 1304 1349 1423 1387
1441 1365 1433 1954 2112 2105 1981 1970 1792 1334 1093 898 1251 1299 1300 1576 1732 1589 1332 1205 1082 1074 1219 1225 1087 857 937 1274 1459 1389 1133 1221 1276 1277 1261 1387 1409 1192 766 837 1146 1052 1047 1121 1033 997 913 814 763 738 670 670 632 644 602 663 741 802 512 391 389 349 335 244 251 268 278 260 250 291 366 427 538 637 618 605 586 580 637 725 1032 1162 1243 1295 1345
1485 1443 1988 2324 2053 1798 1673 1498 1294 1172 1060 955 895 1017 1462 1832 1870 1716 1521 1406 1233 1085 1081 996 734 677 516 859 1228 1266 1289 1046 777 748 1021 1401 1372 1230 884 950 1109 936 1089 1167 1091 1037 932 831 687 637 626 592 589 517 525 1015 920 827 720 464 309 611 484 468 156 39 0 213 243 237 249 279 326 384 526 627 601 544 531 507 608 834 1023 1200 1284
1472 1694 2074 2164 1679 1474 1414 1433 1341 1122 1026 1032 780 457 1228 1784 1610 1356 1214 1190 1223 1046 659 590 614 582 526 606 818 950 1052 762 676 534 1010 1436 1123 1067 939 1197 848 805 1155 1147 1079 964 852 802 719 576 472 392 296 409 851 858 781 654 726 1065 1284 1191 922 572 241 4 5 7 111 145 154 4 4 71 260 420 528 587 566 472 466 688 869 1026 1164
1478 1843 2028 1690 1494 1475 1414 1279 1222 1185 1156 640 0 0 472 1168 1263 1284 1357 1402 1180 770 670 574 521 666 702 746 721 733 742 652 476 849 1263 1381 1301 1133 1048 1082 1166 1015 1091 1122 1010 979 879 821 749 668 504 442 472 558 760 803 881 835 795 950 974 877 750 352 85 127 2 0 0 0 0 0 0 494 758 793 745 605 578 832 768 682 814 967 1043
1716 1923 1711 1510 1383 1201 937 922 920 846 647 0 0 0 382 780 805 865 912 838 666 620 577 548 556 502 698 803 828 842 711 869 813 853 1350 1368 1270 1300 1271 1252 1168 1091 1078 1116 995 953 864 758 753 711 599 580 637 776 722 828 710 768 692 659 831 1028 736 541 374 6 17 0 0 0 0 0 0 571 746 785 708 672 581 648 802 813 600 428 392
1687 1677 1557 1433 1172 708 718 744 656 429 12 0 76 180 458 632 611 646 511 245 0 0 273 499 544 586 612 776 895 646 565 587 705 852 1481 1466 1372 1443 1374 1355 1258 1204 1106 1110 1032 966 897 809 668 658 691 629 604 780 862 761 611 722 702 568 606 702 533 488 384 33 0 0 0 0 0 0 0 0 144 256 451 406 330 444 443 488 438 567 554
1721 1650 1528 1290 831 656 598 602 626 517 299 235 211 111 520 629 510 381 150 0 0 0 0 0 0 0 0 346 836 1003 725 660 681 928 1573 1626 1592 1384 1450 1347 1198 1086 1038 1008 785 702 716 695 677 704 746 696 729 676 588 694 534 707 665 494 409 101 23 360 333 66 0 0 0 0 0 3 0 0 2 38 151 435 154 537 564 466 526 601 624
1698 1610 1354 946 759 665 630 609 758 586 393 267 88 100 536 636 413 262 106 0 0 0 0 0 0 1 0 0 0 0 444 672 909 1230 1799 1743 1525 1438 1378 1307 1167 1148 1064 979 827 730 608 704 791 639 659 518 536 644 508 594 628 660 462 477 295 381 140 338 92 16 0 0 0 0 0 5 0 0 0 0 6 46 221 717 756 644 373 285 510
1607 1479 1043 967 754 682 659 692 835 557 448 376 0 159 556 550 343 222 70 0 0 0 0 0 0 0 0 0 0 0 0 0 0 470 1196 1466 1515 1485 1394 1307 1246 1178 1124 999 832 654 506 417 442 682 494 454 416 424 611 71 482 538 444 299 249 406 325 296 15 4 4 7 106 0 0 0 144 135 0 0 0 2 18 175 425 699 649 494 707
1507 1363 1157 966 822 802 786 779 956 372 405 393 0 0 422 418 266 72 0 0 0 0 0 0 0 0 0 0 0 0 0 0 0 0 394 923 1135 1216 1274 1332 1366 1240 1083 924 689 526 516 520 620 693 638 843 694 690 691 374 411 332 390 317 602 674 350 153 256 53 0 0 0 0 0 0 0 0 0 0 0 0 1 17 159 244 896 1137 1170
1427 1323 1167 958 925 947 918 913 984 312 365 339 0 0 32 246 81 0 0 0 0 0 0 0 0 0 0 0 0 0 0 0 0 0 257 600 738 749 761 923 1157 1173 956 746 638 650 693 723 657 706 718 826 811 744 802 750 553 518 628 295 493 628 445 370 288 149 33 98 25 0 0 0 0 0 0 0 0 0 0 0 10 168 246 628 877
1377 1370 1262 1102 975 986 1008 988 1026 323 91 341 0 0 0 0 0 0 0 0 0 0 0 0 0 0 0 0 0 0 0 0 0 0 0 0 0 0 60 109 251 298 265 259 348 474 591 451 484 710 898 898 762 800 846 719 583 590 521 393 373 116 0 0 172 279 247 22 0 0 0 0 0 0 0 0 0 0 0 0 37 256 194 182 446
1221 1282 1398 1209 1056 1025 1040 1042 1039 387 0 0 0 0 0 0 0 0 0 0 0 0 0 0 0 0 0 0 0 0 0 0 0 0 0 0 0 0 0 0 0 0 0 0 0 39 152 472 647 681 654 627 740 932 914 761 643 602 440 186 0 0 0 0 0 0 0 0 0 0 0 0 0 0 0 0 0 0 0 0 0 0 0 0 16
1213 1202 1423 1327 1118 1048 1026 1061 996 543 0 0 0 0 0 0 0 0 0 0 0 3 1 0 0 0 0 0 0 0 0 0 0 0 0 0 0 0 0 0 0 0 0 0 0 0 59 366 284 109 0 34 207 453 530 566 544 247 28 15 0 0 0 0 0 0 0 0 0 0 0 0 0 0 0 0 0 0 0 0 0 0 0 0 0
Wind_Speed
27 31 30 34 39 41 41 44 43 44 45 44 44 44 44 44 43 43 44 46 47 48 49 48 46 43 40 39 38 37 36 37 37 37 36 35 34 33 33 33 33 32 33 32 31 29 28 27 26 24 23 22 22 24 25 26 28 28 28 28 29 28 28 27 26 28 26 24 25 22 20 19 19 20 19 21 23 23 21 20 17 12 nan 13 nan
32 30 32 36 42 42 42 43 44 45 45 45 45 45 46 45 43 43 44 45 46 47 48 47 45 42 40 38 37 36 35 35 36 37 35 33 32 32 33 32 32 32 32 31 30 27 27 26 25 24 22 21 22 23 24 25 27 28 28 28 28 28 28 28 27 26 25 24 23 23 22 21 20 20 20 21 22 22 21 19 18 11 9 15 17
36 35 35 39 44 42 40 41 43 45 45 45 46 46 45 44 43 42 43 44 45 46 46 45 42 41 39 38 36 35 35 34 33 34 34 32 31 32 32 31 31 32 32 31 30 28 27 26 25 23 22 20 21 22 25 26 27 28 29 28 27 28 28 27 26 26 26 24 23 23 22 22 20 21 21 22 22 22 21 18 nan 16 nan nan nan
39 37 38 42 46 43 42 43 44 46 45 43 43 43 43 42 42 43 44 45 46 46 44 43 40 39 38 37 36 36 35 34 33 32 32 31 30 30 30 30 30 31 31 32 31 28 27 26 24 22 21 20 20 22 24 25 27 28 29 27 27 27 27 27 27 26 25 25 23 20 15 14 17 21 22 22 23 22 21 19 nan nan nan nan nan
41 41 40 42 43 45 46 46 47 46 43 41 40 40 41 41 42 43 44 45 45 45 44 43 41 39 38 37 36 35 33 33 32 32 31 31 30 30 29 29 28 30 31 30 29 27 26 26 25 22 21 20 20 22 24 25 26 27 27 26 27 26 27 27 27 26 26 25 24 20 16 15 13 19 20 21 22 22 22 21 19 18 18 17 16
44 44 42 41 44 45 47 46 46 44 40 39 39 40 41 41 43 44 43 43 45 45 44 42 40 39 39 38 36 34 33 32 32 31 32 31 30 29 30 28 28 29 29 28 28 27 26 26 24 23 22 21 20 22 24 24 25 26 26 26 26 25 27 28 26 26 26 26 24 19 17 16 14 14 20 21 22 22 22 22 21 19 nan nan 17
48 46 45 46 45 46 47 45 43 39 38 39 41 42 42 42 44 44 44 43 45 45 44 43 40 40 39 38 36 34 33 32 31 30 30 31 31 31 28 27 27 27 28 27 26 26 26 26 24 22 22 21 21 22 23 24 24 24 25 26 26 25 23 24 26 25 26 24 21 19 nan 16 14 12 20 20 21 23 23 22 nan nan nan nan nan
49 48 51 52 49 49 47 45 44 41 41 42 43 43 42 40 42 43 44 43 44 45 44 43 41 40 39 38 36 35 34 32 32 31 31 32 31 30 30 25 25 26 27 27 27 26 26 26 24 23 23 22 21 22 22 23 23 23 23 23 23 23 22 20 22 24 24 22 21 20 18 16 14 13 19 21 22 22 22 nan nan nan nan nan 19
51 52 55 54 51 51 49 47 46 46 44 43 43 43 42 41 42 43 43 43 43 44 43 42 41 40 39 38 37 36 35 34 33 33 33 34 33 30 30 27 26 28 27 26 25 25 26 26 24 23 23 23 22 22 21 21 21 21 22 22 22 23 20 17 19 23 21 21 22 20 18 18 16 16 20 22 22 22 22 20 19 nan nan nan nan
52 51 53 50 47 49 48 47 46 46 45 44 43 42 42 42 43 43 43 42 42 42 42 41 40 40 39 38 37 36 35 35 34 34 34 34 33 32 30 30 30 27 26 24 23 23 25 26 24 23 23 23 23 21 21 21 21 21 21 21 21 22 16 16 16 21 20 21 21 20 18 19 17 16 19 21 21 20 nan 20 17 nan nan nan nan
50 49 50 48 47 47 47 46 46 46 45 44 43 42 43 44 43 41 40 40 40 40 40 40 39 39 39 39 38 37 36 35 35 35 36 35 34 33 31 31 30 27 25 23 22 22 25 25 23 22 22 23 23 22 20 20 20 20 20 20 21 17 16 16 20 20 20 21 20 19 19 21 17 17 21 22 21 19 19 20 nan nan nan nan 23
50 49 49 47 49 48 46 45 45 44 44 43 43 42 43 42 40 40 39 38 39 39 38 38 38 38 39 39 38 38 37 37 37 37 37 37 36 34 31 29 29 28 24 22 21 22 24 23 22 20 21 22 23 22 21 21 20 20 20 20 19 19 22 25 22 21 20 21 19 19 21 20 18 19 24 22 20 19 18 18 19 21 nan 23 22
51 48 45 46 45 46 45 44 43 42 42 42 42 41 40 39 38 37 37 37 37 38 38 38 37 37 38 39 39 38 38 38 38 38 37 36 35 33 31 29 28 27 25 23 22 22 23 22 21 19 20 21 23 23 23 23 21 21 21 22 22 24 26 27 22 22 21 21 20 20 20 19 19 24 24 23 22 20 18 18 18 19 21 23 23
47 43 41 41 38 44 43 41 41 41 41 42 40 39 37 36 36 35 35 36 37 38 38 38 37 37 38 38 37 37 37 38 38 37 37 36 34 33 31 29 27 26 25 23 22 22 22 22 21 20 20 21 23 24 25 24 23 22 23 24 24 24 27 25 24 21 21 22 20 19 19 19 19 25 26 23 21 19 19 18 17 17 nan 22 23
44 41 38 35 34 36 42 39 40 40 40 38 36 33 33 34 34 34 34 35 37 38 39 37 37 38 38 38 38 37 37 37 37 37 36 35 34 32 30 28 26 25 25 23 22 22 23 23 22 21 20 21 22 23 24 24 24 23 24 24 25 24 25 22 21 21 22 22 20 19 19 19 24 26 27 25 22 20 19 18 17 16 18 nan 22
40 38 35 31 30 33 33 37 39 38 35 32 30 31 32 32 32 33 34 36 39 39 39 39 39 40 41 41 40 38 37 38 37 36 35 34 32 31 30 27 26 24 24 23 23 22 22 23 23 21 20 21 22 23 23 24 23 24 24 24 25 24 23 22 21 21 22 22 21 20 19 21 25 27 28 27 23 21 19 18 17 16 17 19 21
37 35 36 32 29 28 29 31 34 36 31 28 29 30 30 30 31 34 36 39 40 40 40 41 42 42 43 42 41 39 38 38 37 36 34 33 33 31 29 27 25 23 22 22 23 23 22 23 23 22 20 22 23 24 25 25 25 25 24 24 25 23 22 23 21 20 20 21 22 21 19 21 24 27 29 29 26 21 20 19 18 17 17 19 20
34 32 30 29 27 26 27 28 29 27 24 26 28 29 29 29 32 36 39 40 41 40 40 41 41 41 40 39 38 38 38 37 36 36 35 33 33 32 30 28 25 22 20 21 22 22 22 22 22 22 20 22 25 26 26 27 27 27 24 25 26 25 23 24 22 20 19 19 22 22 20 19 24 28 30 30 28 23 21 20 19 18 18 19 20
28 28 26 25 24 24 26 25 24 23 23 23 24 26 29 31 36 39 41 41 40 40 40 40 39 36 34 34 35 35 34 34 35 36 35 34 32 30 29 26 25 21 19 19 21 21 22 22 21 21 20 22 25 26 25 27 28 28 25 26 27 26 25 24 22 20 19 20 21 22 21 23 25 26 29 31 30 26 21 nan 19 18 19 19 19
24 24 25 23 22 23 24 23 22 22 23 24 26 26 30 35 37 41 42 41 36 35 37 38 37 32 32 33 33 30 30 29 32 31 32 31 30 26 27 27 25 21 17 17 18 20 21 21 21 20 19 21 24 24 24 25 27 27 26 26 27 26 25 24 23 21 21 20 21 22 21 25 25 26 28 30 30 28 23 21 21 20 18 19 19
21 21 22 21 21 22 23 22 23 24 26 28 30 30 33 37 37 43 42 38 35 39 38 37 33 32 33 32 31 29 30 30 28 25 27 22 23 27 26 27 25 23 19 16 17 19 20 21 21 21 19 21 24 25 25 25 25 25 24 24 25 25 24 24 23 23 22 21 22 21 21 25 26 28 28 29 30 29 26 22 20 20 19 20 20
21 22 22 21 21 22 24 24 25 27 30 32 33 34 34 35 34 35 35 33 36 34 31 30 30 31 28 28 26 26 30 34 28 30 26 25 22 20 25 24 24 21 20 17 16 17 19 20 20 19 19 23 26 25 25 25 26 24 23 23 23 22 23 23 24 23 23 21 22 20 21 24 27 29 28 29 30 30 28 24 22 21 21 21 21
24 26 23 21 22 24 24 26 28 31 35 36 36 36 35 33 32 30 30 33 32 31 29 29 28 28 27 25 26 28 31 30 29 33 28 25 22 19 16 22 23 20 19 18 17 16 19 20 19 18 21 24 25 24 24 nan 22 27 26 23 22 22 22 23 24 24 23 23 23 19 22 23 27 29 29 28 29 30 29 27 23 22 22 22 21
26 26 19 20 23 24 26 29 31 33 35 36 37 36 32 31 30 31 31 30 29 30 28 29 26 27 25 23 26 28 33 31 32 36 32 24 21 16 15 14 16 19 18 17 16 18 19 20 19 18 21 23 23 23 nan nan 22 23 22 22 22 21 21 22 22 23 25 23 24 19 21 22 26 29 30 28 28 28 28 27 25 23 22 21 22
19 16 11 16 24 28 32 32 31 34 39 34 23 22 26 30 28 27 28 28 29 32 30 28 26 25 25 23 25 27 30 31 30 30 29 23 21 19 17 18 16 14 15 18 19 20 22 22 21 20 20 21 22 22 nan nan 22 23 21 21 22 21 21 21 21 23 25 25 24 19 21 22 26 28 29 29 28 27 28 27 26 25 23 22 21
18 18 21 21 27 32 28 25 28 35 39 29 23 22 26 29 27 26 27 28 29 31 30 28 25 23 24 24 26 28 28 27 28 29 26 22 20 18 17 18 16 15 16 18 19 21 23 24 21 20 20 21 22 23 24 nan 22 nan 21 20 21 21 20 21 21 22 24 25 25 20 21 22 24 27 28 29 29 27 27 27 26 26 25 23 21
21 26 31 30 33 24 22 23 30 36 29 23 29 26 27 26 25 26 26 24 24 26 27 25 23 22 24 25 27 27 25 23 26 25 23 20 18 16 16 17 16 16 17 18 17 19 22 24 23 22 22 22 23 23 24 23 21 21 21 19 21 21 20 20 21 21 23 25 25 20 21 22 23 25 27 28 28 28 27 27 27 26 26 25 23
27 31 38 34 22 19 21 29 33 30 20 27 25 23 23 22 21 22 22 21 22 23 24 22 20 21 23 25 25 26 24 22 21 23 20 19 16 17 16 15 14 15 16 15 15 16 20 23 25 25 24 23 24 24 24 nan 21 22 21 19 21 22 20 20 21 22 23 25 25 22 22 22 23 24 26 27 27 28 27 26 27 27 27 26 25
31 39 34 22 17 21 26 31 27 25 24 22 21 19 21 20 17 20 24 23 23 22 23 22 20 19 21 24 24 24 22 21 19 20 24 18 15 15 17 15 15 15 15 14 15 16 17 20 22 23 24 23 23 23 24 nan 24 23 22 22 22 23 23 23 24 25 24 25 25 24 23 24 23 24 26 26 26 27 27 26 27 29 28 27 25
34 36 24 21 20 18 20 23 21 18 16 15 17 20 22 21 18 18 23 23 23 23 22 22 20 18 20 22 22 22 21 20 18 18 21 20 18 14 14 15 14 16 16 16 16 16 16 18 20 21 22 23 22 23 24 25 26 26 25 25 25 24 24 24 25 24 26 26 27 27 24 24 25 27 27 26 25 25 26 26 27 29 28 28 27
41 33 23 18 15 14 14 19 18 13 10 13 15 18 21 20 19 19 20 20 22 23 24 22 20 19 19 18 18 18 18 18 18 18 16 16 17 14 11 13 13 13 11 9 9 9 12 14 16 18 18 19 22 25 26 28 29 nan nan 28 28 27 26 26 26 25 26 27 29 30 28 25 27 29 29 27 26 25 25 26 26 27 28 28 27
31 24 23 22 12 8 14 16 15 13 12 12 16 18 18 18 19 21 20 20 20 21 23 22 21 18 19 18 17 17 16 15 16 16 15 16 15 10 8 11 8 7 6 6 6 6 7 10 13 15 17 20 22 24 24 28 29 nan nan 30 29 29 28 28 27 26 25 25 26 28 29 30 29 29 29 29 28 26 26 25 26 27 27 28 28
20 19 15 24 19 15 16 17 17 18 21 20 19 19 19 18 18 17 18 21 19 19 20 21 21 18 18 18 17 16 14 13 15 14 13 12 13 9 8 10 8 8 7 7 7 5 6 8 11 14 17 20 22 21 22 25 26 26 26 27 28 29 28 29 28 28 26 25 26 28 28 28 30 30 30 31 31 31 28 26 25 26 26 27 27
22 18 16 14 25 25 17 18 19 21 22 22 22 22 20 19 18 16 15 17 18 19 19 19 19 18 17 17 17 15 14 13 15 14 9 6 9 8 8 12 14 16 14 10 8 7 7 8 9 12 13 17 19 19 21 24 24 24 25 24 26 27 29 31 29 27 27 28 28 26 26 26 27 29 31 32 32 32 32 29 26 25 25 26 27
24 22 16 10 10 22 12 15 16 19 21 21 23 23 21 20 18 15 14 15 19 19 19 19 18 17 17 15 15 14 13 13 13 14 12 9 8 8 8 9 14 17 15 10 9 7 8 9 9 11 11 13 15 17 18 21 23 25 25 25 25 24 26 28 28 28 28 27 28 27 24 21 24 28 30 33 33 33 33 31 28 26 24 24 24
25 19 16 13 8 7 8 13 16 19 21 24 24 25 22 19 17 15 15 15 19 20 20 19 18 17 15 14 14 14 15 16 14 14 15 13 10 12 16 12 12 14 11 8 7 8 8 9 8 10 11 10 13 14 16 17 19 22 24 26 25 24 24 25 27 27 27 30 29 27 24 21 22 27 29 30 32 32 32 31 28 26 24 23 22
21 20 18 20 17 15 13 16 19 21 22 25 27 25 22 19 18 17 17 17 19 22 21 20 19 18 15 13 12 13 15 15 15 14 15 15 13 17 18 16 11 9 9 8 8 8 9 8 8 8 9 10 12 13 14 14 16 20 23 24 25 26 26 25 24 24 27 30 30 29 26 22 22 23 27 28 30 30 31 31 28 25 25 22 22
17 20 18 23 22 20 17 20 21 22 23 25 25 25 22 21 19 19 17 18 19 22 21 20 19 16 16 15 13 11 13 13 12 12 14 14 14 15 13 5 5 11 9 11 11 11 11 10 10 9 10 12 13 13 12 13 15 18 20 21 20 25 26 24 21 18 22 27 28 28 25 24 24 23 24 26 28 30 31 31 28 26 24 25 23
20 22 22 23 24 23 22 23 23 23 23 23 25 25 25 23 20 20 19 19 19 18 19 20 17 16 15 16 14 12 13 12 11 10 10 12 13 13 13 12 13 10 10 14 13 13 13 12 11 11 12 12 13 12 12 13 16 16 18 17 18 23 25 21 18 nan nan 23 23 25 26 26 25 23 24 25 26 28 30 32 33 32 30 26 25
23 26 25 24 25 24 22 23 23 23 22 23 23 25 24 23 22 20 20 19 18 16 15 16 18 17 16 16 15 13 13 12 10 10 10 13 15 12 11 9 10 7 13 15 14 14 15 15 15 14 15 14 15 13 14 15 16 17 15 13 14 17 18 18 18 nan nan nan 20 23 25 nan nan nan 24 25 26 26 28 31 33 32 33 30 27
18 21 21 22 23 24 25 23 21 22 23 22 nan nan 23 21 19 20 22 20 21 18 16 13 12 15 15 15 16 13 12 12 10 10 11 11 13 13 11 10 12 14 15 16 16 17 16 16 15 15 14 15 14 13 14 16 18 16 15 13 9 12 13 15 nan 17 nan nan nan nan nan nan nan 25 24 25 26 28 29 30 31 34 35 35 34
14 18 22 23 22 23 24 22 21 21 20 nan nan nan 19 19 21 21 22 23 24 22 18 15 14 14 15 14 14 13 11 12 11 11 11 12 12 12 13 13 15 16 16 17 16 17 16 18 17 15 14 14 15 14 16 17 16 16 16 13 10 9 11 14 15 nan nan nan nan nan nan nan nan 24 25 26 27 27 29 30 35 42 39 38 37
20 20 24 23 20 20 21 21 20 19 nan nan nan 18 16 17 19 18 22 22 nan nan 22 19 17 16 15 13 13 12 11 10 11 11 12 12 12 13 12 14 15 16 18 17 17 17 16 16 16 16 16 17 16 15 15 17 16 15 18 18 14 13 12 14 15 nan nan nan nan nan nan nan nan nan 24 25 25 23 27 32 31 34 34 31 31
21 19 20 23 20 19 20 20 20 19 19 18 16 15 17 17 17 18 16 nan nan nan nan nan nan nan nan 14 13 12 11 10 11 11 11 12 12 14 15 15 16 16 18 19 19 18 17 17 17 18 19 19 17 17 17 19 17 15 17 17 17 17 nan 15 16 nan nan nan nan nan nan nan nan nan nan nan 25 24 26 31 28 29 31 31 33
18 19 20 22 19 20 20 21 21 20 19 18 nan 17 19 18 18 17 17 nan nan nan nan nan nan nan nan nan nan nan 13 12 11 11 11 12 13 14 16 16 16 17 18 20 19 19 18 18 19 20 20 20 19 19 20 22 20 16 17 21 21 21 18 16 nan nan nan nan nan nan nan nan nan nan nan nan nan nan 25 28 27 25 26 27 30
14 15 18 20 21 19 20 20 21 22 21 19 nan 19 20 21 20 20 nan nan nan nan nan nan nan nan nan nan nan nan nan nan nan 13 13 13 14 14 15 16 17 18 19 19 20 20 19 20 19 21 21 20 22 22 21 nan 21 18 24 23 20 21 21 20 nan nan nan nan 21 nan nan nan 24 24 nan nan nan nan nan 26 26 27 29 30 29
11 13 14 17 19 19 19 19 21 22 22 21 nan nan 22 22 23 nan nan nan nan nan nan nan nan nan nan nan nan nan nan nan nan nan 16 15 16 16 16 17 18 18 18 20 20 19 18 19 19 20 20 21 23 24 24 24 24 22 24 25 27 23 23 24 23 nan nan nan nan nan nan nan nan nan nan nan nan nan nan nan 25 26 27 29 29
6 9 11 14 17 18 19 18 19 22 22 21 nan nan nan 22 nan nan nan nan nan nan nan nan nan nan nan nan nan nan nan nan nan nan 18 17 18 18 18 18 19 18 19 19 18 18 20 20 21 21 21 21 23 24 24 25 25 24 26 28 28 27 25 27 26 25 nan nan nan nan nan nan nan nan nan nan nan nan nan nan nan 26 26 27 27
4 5 8 11 14 16 18 18 19 22 nan 22 nan nan nan nan nan nan nan nan nan nan nan nan nan nan nan nan nan nan nan nan nan nan nan nan nan nan nan 19 20 19 19 20 19 19 20 20 21 22 21 23 23 23 24 23 25 24 27 27 27 28 nan nan 27 27 26 nan nan nan nan nan nan nan nan nan nan nan nan nan nan 27 27 26 27
9 9 11 12 14 16 18 19 20 21 nan nan nan nan nan nan nan nan nan nan nan nan nan nan nan nan nan nan nan nan nan nan nan nan nan nan nan nan nan nan nan nan nan nan nan nan 19 20 19 20 21 23 22 23 23 23 25 25 25 26 nan nan nan nan nan nan nan nan nan nan nan nan nan nan nan nan nan nan nan nan nan nan nan nan nan
13 12 12 12 14 16 20 23 22 22 nan nan nan nan nan nan nan nan nan nan nan nan nan nan nan nan nan nan nan nan nan nan nan nan nan nan nan nan nan nan nan nan nan nan nan nan nan 19 19 21 nan nan 22 24 25 24 25 27 nan nan nan nan nan nan nan nan nan nan nan nan nan nan nan nan nan nan nan nan nan nan nan nan nan nan nan
Wind_Direction
290 292 294 303 303 302 299 297 294 292 293 293 293 293 294 295 293 293 292 292 291 291 291 291 289 289 289 290 291 292 293 294 295 295 296 299 301 302 302 301 299 297 296 292 289 285 284 284 283 283 284 284 284 284 283 284 284 280 275 270 266 264 261 256 251 245 245 245 245 253 257 263 265 263 258 253 249 246 243 238 230 214 nan 210 nan
294 292 297 303 305 302 299 297 295 294 293 294 294 295 296 295 294 293 292 291 291 291 291 290 289 288 289 288 288 289 289 290 292 293 295 297 299 300 301 301 299 297 295 292 288 285 284 283 281 280 282 285 286 285 285 285 285 281 276 272 269 265 260 255 251 249 252 250 245 250 256 258 259 263 261 260 254 248 247 243 237 207 195 222 224
289 294 297 302 304 301 299 299 295 294 293 294 295 295 296 295 294 293 291 290 290 290 289 288 288 288 288 287 287 287 287 287 288 292 295 296 298 299 301 301 299 298 296 292 288 284 281 278 276 278 279 280 282 285 285 284 285 283 279 276 271 266 262 256 251 251 251 252 249 247 255 259 263 262 261 261 258 250 248 245 nan 231 nan nan nan
290 291 294 299 303 298 299 300 298 295 294 295 296 295 295 295 294 292 291 290 290 290 289 287 287 287 287 287 287 288 288 288 289 291 293 294 295 297 300 301 300 298 296 291 288 285 282 279 276 276 278 278 280 283 284 283 285 283 280 278 273 268 263 257 252 250 248 243 241 239 233 237 253 264 263 262 262 256 253 251 nan nan nan nan nan
286 288 289 296 299 297 299 299 300 296 295 296 296 296 296 295 293 292 292 291 290 289 289 288 287 287 287 287 288 288 287 287 287 289 291 292 294 295 296 298 297 297 294 290 286 283 279 277 274 273 276 278 280 281 283 283 285 285 281 278 274 270 265 257 253 249 245 243 239 234 235 241 251 263 268 267 263 259 255 252 250 244 238 237 235
285 287 287 291 296 297 299 300 301 297 295 297 297 297 296 295 293 293 292 292 291 290 289 289 287 287 287 287 287 287 286 285 286 288 289 290 291 290 295 297 297 294 291 286 284 281 277 273 271 271 271 274 276 280 281 281 283 284 282 279 277 273 267 256 248 246 244 241 236 234 238 241 244 258 270 271 269 262 255 253 249 245 nan nan 233
286 284 285 291 294 295 297 298 299 297 296 297 297 297 295 293 292 292 292 292 291 290 290 289 287 286 286 286 286 285 285 285 284 285 287 289 290 291 293 293 292 290 285 282 279 277 275 272 265 265 269 271 275 276 280 281 280 282 285 282 276 273 258 249 252 247 243 236 234 232 nan 238 247 256 271 273 270 265 259 252 nan nan nan nan nan
282 282 285 288 290 292 293 294 294 294 295 296 296 295 293 291 291 292 292 291 290 289 289 288 287 287 287 286 286 286 285 285 284 283 281 285 287 289 288 288 290 286 284 279 277 275 268 265 262 260 265 268 270 272 272 273 275 279 282 282 271 262 257 256 252 253 246 235 235 235 236 239 242 253 271 269 269 267 264 nan nan nan nan nan 238
282 284 284 287 287 290 291 291 290 292 294 295 295 294 293 292 291 292 291 290 289 289 288 288 288 287 287 287 287 287 288 288 286 285 283 283 288 287 290 289 281 281 284 279 277 273 265 262 257 255 261 264 262 261 264 265 265 264 266 267 265 261 257 259 254 257 244 238 238 238 238 241 238 249 269 269 265 265 263 258 256 nan nan nan nan
281 282 284 283 284 288 290 291 291 292 294 295 294 294 294 293 291 291 291 289 288 287 288 288 289 288 288 288 289 289 289 289 288 286 284 282 281 283 284 283 286 287 285 284 279 272 264 261 256 251 253 260 264 260 257 259 261 264 265 266 265 262 268 262 262 258 250 245 242 241 241 248 244 248 265 269 269 269 nan 268 263 nan nan nan nan
280 280 281 281 285 290 292 292 292 293 293 293 292 292 293 292 291 290 289 287 286 287 288 289 290 289 290 289 290 290 291 291 289 289 287 284 281 280 281 287 288 288 287 284 280 272 265 261 255 251 252 254 258 261 259 257 259 264 266 267 266 270 263 269 267 259 257 253 247 243 247 251 246 249 267 268 272 273 271 270 nan nan nan nan 254
282 280 278 278 286 288 289 290 290 290 291 290 289 291 291 291 288 288 287 286 287 287 289 290 290 290 290 291 291 292 293 292 291 289 288 285 284 282 280 282 287 288 288 284 276 268 263 261 257 250 251 256 257 258 258 256 255 258 262 262 263 265 274 274 267 265 261 256 250 247 245 247 250 260 268 269 272 273 273 273 269 263 nan 256 255
284 284 276 272 278 284 285 287 289 287 288 287 287 287 287 287 287 286 286 286 287 289 290 290 290 291 291 292 294 295 295 294 292 290 288 287 287 287 286 285 286 288 287 283 274 265 262 261 259 252 248 251 254 254 252 249 249 251 253 252 251 268 274 273 264 263 260 257 253 250 249 250 252 267 269 269 272 278 277 272 271 268 264 258 254
287 286 276 270 273 281 281 285 286 286 284 283 283 285 283 284 285 285 286 287 289 290 290 290 290 292 292 293 294 294 293 293 292 291 290 288 287 288 288 288 288 288 286 282 273 265 262 261 258 255 248 246 247 249 248 246 244 245 246 246 246 262 269 262 260 258 260 260 257 253 250 250 256 267 268 269 272 272 270 271 272 271 nan 261 257
287 286 274 269 269 271 280 282 283 281 278 279 281 281 280 280 284 286 289 291 291 289 289 290 291 291 290 290 290 290 290 291 291 292 291 289 288 288 289 289 289 288 285 281 275 269 266 262 257 253 250 246 245 247 246 244 241 241 242 243 244 252 262 254 254 255 259 259 254 252 253 255 269 272 271 271 271 269 272 273 273 271 264 nan 258
281 279 272 267 268 269 271 278 275 273 273 278 279 278 278 281 286 290 292 290 288 288 289 290 289 288 287 286 286 287 288 289 289 290 291 291 289 289 289 289 289 288 283 278 275 273 271 265 260 258 255 251 247 245 247 245 242 241 241 241 241 251 263 256 254 251 255 259 259 254 253 257 269 271 271 270 270 272 275 277 274 270 268 264 261
274 274 273 270 269 268 268 265 269 275 275 275 276 277 279 284 290 291 288 286 287 287 287 289 289 288 288 288 289 290 289 287 287 289 290 291 290 289 289 288 286 285 280 274 272 272 271 269 265 261 259 255 250 247 248 248 245 243 242 240 239 252 266 259 252 251 254 258 261 259 257 259 270 276 276 274 272 272 275 275 273 273 272 269 265
275 273 273 271 265 262 261 259 265 266 264 268 273 277 281 287 287 284 283 283 284 286 290 293 293 293 294 295 294 291 288 288 289 290 291 291 292 291 291 289 285 282 278 270 267 267 268 266 263 261 257 255 253 249 247 249 247 244 241 241 239 253 265 258 249 249 251 255 258 259 258 262 273 277 278 278 277 276 276 280 278 276 273 269 265
276 278 277 274 267 260 255 254 255 255 258 257 262 273 280 280 277 279 280 282 285 292 296 293 291 292 295 294 289 287 290 294 294 294 292 293 293 293 294 291 287 281 277 271 266 265 265 263 259 255 251 250 251 249 244 244 246 243 239 240 243 254 265 252 248 247 246 249 252 256 258 268 271 277 278 279 280 278 273 nan 275 272 272 271 268
275 275 273 270 261 254 249 247 247 250 252 254 259 264 270 271 275 277 280 282 289 288 286 283 281 280 280 281 284 290 293 293 296 293 296 296 293 291 296 298 294 287 279 273 269 265 264 262 257 250 245 245 248 246 242 238 241 241 239 240 242 251 248 247 247 246 243 243 245 248 254 268 270 273 274 278 278 278 275 274 276 277 274 271 268
275 269 265 264 256 253 250 239 244 245 249 252 254 255 259 267 270 277 281 288 286 278 278 284 289 287 284 287 284 287 279 272 270 276 282 285 292 300 300 299 296 291 286 275 267 265 262 259 255 247 241 242 244 243 241 236 234 234 239 243 244 244 247 245 246 245 244 240 243 244 253 261 268 271 272 274 277 278 277 273 271 271 272 275 273
277 262 254 252 249 243 244 240 237 243 241 241 246 250 256 264 268 277 283 282 278 282 276 275 277 272 280 277 277 273 273 274 287 292 283 286 288 294 304 303 300 295 288 277 266 263 262 258 253 248 242 239 240 241 238 234 230 229 234 238 238 245 246 247 245 246 244 242 243 245 258 259 268 270 270 271 273 275 276 275 272 272 272 273 272
263 246 235 233 237 240 236 237 237 236 238 243 246 251 257 261 267 275 277 280 282 279 277 279 275 279 280 282 281 276 275 284 290 289 291 291 285 288 290 305 307 302 294 282 268 261 256 257 255 250 244 244 244 243 242 nan 233 226 225 224 234 245 247 246 245 245 244 243 244 249 262 261 268 270 270 269 270 273 274 274 275 274 274 271 273
253 227 211 218 230 236 236 234 234 237 241 245 250 249 261 270 272 270 272 276 280 281 280 280 281 282 286 284 280 278 279 288 297 297 303 298 289 294 297 289 303 303 296 276 270 256 252 251 251 249 246 246 247 246 nan nan 235 234 227 228 230 240 246 246 247 246 245 244 246 251 264 260 266 268 270 270 269 271 272 273 275 274 272 274 272
272 227 240 238 230 232 232 230 232 238 244 250 248 258 270 274 272 272 270 276 279 284 283 284 286 285 285 285 282 279 279 287 289 286 292 303 297 289 287 277 271 263 275 260 258 248 246 243 241 242 242 243 245 246 nan nan 235 233 230 232 232 236 241 244 246 245 245 243 246 256 263 261 265 269 271 271 270 268 270 272 273 274 273 273 273
260 258 291 265 240 237 237 237 237 241 248 265 286 282 279 270 268 270 272 276 282 287 289 290 291 289 287 284 281 279 286 289 287 287 292 301 302 293 291 287 283 272 261 262 260 249 244 244 242 241 241 244 245 246 246 nan 234 nan 231 229 235 239 240 242 242 243 245 245 246 257 257 260 264 271 271 272 272 270 269 270 272 272 273 271 272
262 270 278 262 246 232 233 239 237 247 262 268 272 274 275 275 271 268 273 279 284 292 298 296 295 293 292 290 290 291 296 298 293 290 294 301 306 295 288 290 290 280 267 264 262 256 251 246 242 238 238 240 241 244 246 244 239 230 234 229 236 240 242 242 241 244 245 246 247 258 255 259 262 267 270 272 273 271 268 268 270 271 272 272 270
266 260 258 251 233 229 227 236 241 251 263 266 270 271 271 280 280 278 271 282 287 299 306 309 303 299 298 298 298 300 303 305 301 301 297 297 306 298 290 285 275 267 266 263 265 262 255 248 242 239 236 237 238 240 242 nan 236 234 231 231 234 240 241 241 243 243 245 247 246 251 256 255 258 260 268 270 271 271 269 266 268 268 269 270 269
270 257 262 265 243 222 231 237 243 248 238 261 273 273 283 288 288 284 284 289 289 295 302 305 308 307 304 304 303 304 305 306 308 305 297 301 300 300 294 287 274 274 271 270 273 275 267 255 245 241 238 235 235 235 236 nan 237 237 235 235 238 237 237 236 237 239 242 246 246 244 254 251 254 255 265 267 269 270 269 264 264 267 268 269 268
256 263 260 251 242 229 236 246 247 254 260 260 268 280 292 292 290 293 289 294 293 295 299 306 311 314 308 307 311 310 310 310 307 301 305 312 311 300 286 278 276 277 275 281 279 279 276 260 247 244 242 238 236 237 242 241 241 238 236 243 245 243 239 236 236 240 240 242 243 241 245 250 251 252 258 265 267 268 268 267 263 263 263 265 267
234 234 220 224 241 241 246 259 261 274 271 267 269 279 285 290 288 287 286 292 299 302 305 306 314 318 306 305 309 305 306 309 305 299 301 302 301 304 292 279 272 274 280 291 279 280 276 267 257 250 249 248 245 244 245 247 244 nan nan 245 246 246 242 238 240 240 242 240 239 238 237 247 251 251 252 256 264 267 267 268 266 263 261 262 264
234 225 206 195 214 256 272 271 283 278 286 279 270 279 286 284 285 287 293 297 297 302 301 302 309 311 303 304 302 298 308 322 309 301 297 292 295 303 292 285 278 250 281 308 291 279 277 261 259 261 260 256 248 244 244 249 250 nan nan 247 246 246 243 243 243 244 246 245 240 238 237 237 239 244 246 249 249 258 266 266 265 262 260 261 262
257 247 225 194 197 230 253 269 283 292 293 290 289 290 289 287 288 295 297 294 296 299 299 297 301 306 306 304 297 300 306 316 308 306 309 303 295 296 284 281 268 257 288 317 304 291 273 268 264 270 268 264 258 248 246 248 250 247 247 247 248 249 245 245 245 246 247 246 241 236 237 240 241 237 239 243 244 243 249 259 260 262 261 261 261
261 253 246 207 184 190 214 246 271 285 288 290 293 295 294 290 293 298 292 288 288 283 279 287 293 298 300 298 303 309 302 298 303 302 312 306 274 262 260 268 259 266 283 308 319 312 295 283 280 275 278 274 267 258 251 251 251 252 250 248 249 249 250 249 244 244 246 249 246 243 238 234 239 243 241 239 240 243 242 243 256 259 260 259 261
262 250 252 276 164 154 202 240 261 274 277 282 288 287 284 286 295 300 303 297 286 278 276 276 283 289 294 301 305 307 301 290 283 288 296 296 270 244 229 239 250 257 272 289 302 298 291 285 282 274 266 272 272 264 258 253 255 255 254 253 252 251 253 254 251 249 246 246 251 251 248 240 238 241 242 243 241 238 239 240 244 257 259 261 262
273 261 251 262 326 34 264 261 267 272 271 276 281 283 284 289 293 297 295 289 282 284 282 281 285 286 293 301 305 303 295 285 282 284 290 286 284 246 207 204 229 241 257 271 283 287 277 270 251 273 275 259 270 258 259 262 260 261 259 258 254 251 249 252 254 253 251 251 247 247 252 249 245 243 243 245 246 243 239 240 242 243 255 263 261
263 256 239 244 287 319 283 270 275 273 271 273 278 277 277 281 284 286 285 284 284 285 287 286 285 287 289 288 292 300 293 291 288 286 290 292 281 252 227 187 204 227 250 252 252 263 274 267 249 243 254 268 260 264 257 258 261 261 262 259 259 259 251 242 234 248 256 251 246 243 244 247 247 248 247 248 249 247 243 240 239 242 244 254 257
269 261 244 256 287 296 278 272 274 272 274 276 273 270 272 277 277 278 281 277 273 277 282 283 284 285 286 284 282 282 279 286 286 289 289 287 285 279 270 260 232 236 229 243 240 242 245 257 261 240 246 261 257 260 254 254 260 262 263 268 265 260 255 250 245 232 249 248 242 240 237 239 242 245 248 249 249 248 244 241 239 241 244 247 251
282 273 257 262 275 274 268 271 273 271 268 266 266 266 269 268 271 277 277 273 269 266 275 277 277 280 280 281 277 276 278 280 284 282 279 282 274 262 237 221 226 229 244 245 243 243 244 242 250 246 239 247 264 263 263 262 257 257 263 265 273 268 258 252 242 nan nan 235 231 235 235 234 237 242 247 248 248 248 244 240 239 242 245 248 250
282 275 269 271 272 267 265 267 269 270 267 265 268 267 268 275 279 282 282 284 281 277 268 272 280 279 279 278 277 279 281 281 284 289 284 280 285 285 275 244 248 251 245 246 246 243 244 242 237 237 239 241 243 253 262 265 259 256 254 260 277 271 253 251 249 nan nan nan 230 234 234 nan nan nan 242 243 245 247 245 242 241 241 244 246 249
278 277 277 279 281 278 276 276 272 271 272 271 nan nan 278 282 285 292 298 299 298 291 283 273 264 273 273 277 282 283 287 283 278 271 275 279 277 284 285 264 250 240 238 241 245 247 247 254 250 246 250 247 246 250 253 254 258 250 247 254 262 254 228 225 nan 223 nan nan nan nan nan nan nan 237 236 236 240 244 245 243 241 240 242 247 248
281 285 291 293 287 285 284 281 274 271 270 nan nan nan 287 301 302 304 302 301 302 302 300 295 285 274 275 276 280 281 279 279 278 269 269 272 264 256 248 245 241 240 241 243 241 250 253 252 254 249 246 255 253 253 248 254 251 263 256 253 257 253 237 223 219 nan nan nan nan nan nan nan nan 234 236 237 241 244 242 245 242 236 233 234 237
286 289 289 287 289 288 288 285 280 275 nan nan nan 280 285 297 300 307 307 302 nan nan 299 298 290 279 273 279 281 279 277 275 271 273 274 272 271 266 255 247 242 245 246 248 250 253 256 261 265 270 261 252 257 257 263 260 261 257 256 253 252 255 247 240 234 nan nan nan nan nan nan nan nan nan 235 239 242 242 247 249 247 248 247 247 248
297 289 286 289 286 287 287 284 282 278 275 268 265 270 284 286 284 293 294 nan nan nan nan nan nan nan nan 272 267 269 267 265 267 271 269 276 275 269 265 257 251 247 252 253 249 249 254 262 265 260 262 256 253 257 263 262 260 261 257 257 258 260 nan 244 241 nan nan nan nan nan nan nan nan nan nan nan 237 241 243 251 244 241 245 247 252
293 290 288 288 282 287 288 288 287 285 274 270 nan 275 281 281 280 276 279 nan nan nan nan nan nan nan nan nan nan nan 264 259 258 270 273 266 258 260 263 264 262 258 262 264 265 266 262 259 258 261 261 263 260 255 254 258 253 251 263 258 247 247 253 253 nan nan nan nan nan nan nan nan nan nan nan nan nan nan 240 246 253 249 247 248 253
282 281 281 282 279 280 285 287 286 281 276 274 nan 277 283 289 291 287 nan nan nan nan nan nan nan nan nan nan nan nan nan nan nan 254 257 257 254 251 252 255 254 254 255 258 258 255 254 254 255 257 254 252 261 257 256 nan 260 255 251 255 261 255 253 251 nan nan nan nan 254 nan nan nan 246 243 nan nan nan nan nan 241 243 243 246 247 249
264 272 272 276 281 286 289 291 290 284 280 280 nan nan 275 284 291 nan nan nan nan nan nan nan nan nan nan nan nan nan nan nan nan nan 253 254 253 250 251 250 250 248 249 251 251 256 260 255 254 254 256 254 253 252 258 255 252 245 248 248 249 250 255 257 254 nan nan nan nan nan nan nan nan nan nan nan nan nan nan nan 245 245 244 249 251
268 275 277 276 289 291 291 290 284 284 282 282 nan nan nan 282 nan nan nan nan nan nan nan nan nan nan nan nan nan nan nan nan nan nan 257 257 257 256 258 259 259 257 257 257 262 260 258 254 255 256 256 254 255 259 259 258 257 250 246 247 250 249 249 254 258 260 nan nan nan nan nan nan nan nan nan nan nan nan nan nan nan 248 246 248 249
242 275 276 277 282 288 288 281 281 281 nan 285 nan nan nan nan nan nan nan nan nan nan nan nan nan nan nan nan nan nan nan nan nan nan nan nan nan nan nan 267 268 268 268 267 264 262 262 261 257 256 254 250 253 257 260 262 260 259 261 256 255 253 nan nan 255 257 262 nan nan nan nan nan nan nan nan nan nan nan nan nan nan 244 247 245 244
235 228 237 254 270 282 288 286 282 280 nan nan nan nan nan nan nan nan nan nan nan nan nan nan nan nan nan nan nan nan nan nan nan nan nan nan nan nan nan nan nan nan nan nan nan nan 261 260 259 261 259 257 252 258 262 260 258 259 257 265 nan nan nan nan nan nan nan nan nan nan nan nan nan nan nan nan nan nan nan nan nan nan nan nan nan
265 265 259 264 276 292 298 292 282 275 nan nan nan nan nan nan nan nan nan nan nan nan nan nan nan nan nan nan nan nan nan nan nan nan nan nan nan nan nan nan nan nan nan nan nan nan nan 262 259 258 nan nan 258 259 258 256 259 258 nan nan nan nan nan nan nan nan nan nan nan nan nan nan nan nan nan nan nan nan nan nan nan nan nan nan nan